North Tumbulgum, Australia

12:49 PM AEST on June 23, 2017 (GMT +1000)
North Tumbulgum

Weather History for 94592 - June, 2013

Change the Weather History Date:

Friday, June 7, 2013

  Actual Average Record
Temperature  
Mean Temperature 64 °F -  
Max Temperature 73 °F - - ()
Min Temperature 54 °F - - ()
Degree Days  
Heating Degree Days 2    
Growing Degree Days 14 (Base 50)    
Moisture  
Dew Point 58 °F    
Average Humidity 82    
Maximum Humidity 100    
Minimum Humidity 53    
Precipitation  
Precipitation 0.00 in - - ()
Sea Level Pressure  
Sea Level Pressure 30.21 in    
Wind  
Wind Speed 5 mph ()    
Max Wind Speed 13 mph    
Max Gust Speed -    
Visibility 6.2 miles    
Events      
T = Trace of Precipitation, MM = Missing Value Source: Averaged Metar Reports

Daily Weather History Graph

Daily Weather History Graph

Search for Another Location

Airport or City:

Trip Planner

Search our weather history database for the weather conditions in past years. The results will help you decide how hot, cold, wet, or windy it might be!

Date:

Astronomy

Jun. 07, 2013 Rise Set
Actual Time 6:32 AM AEST 4:57 PM AEST
Civil Twilight 6:06 AM AEST 5:22 PM AEST
Nautical Twilight 5:37 AM AEST 5:51 PM AEST
Astronomical Twilight 5:08 AM AEST 6:20 PM AEST
Moon 5:00 AM AEST (6/7) 3:57 PM AEST (6/7)
Length of Visible Light 11h 16m
Length of Day
10h 24m
Waning Crescent, 2% of the Moon is Illuminated
Jun 7
Waning Crescent
Jun 9
New
Jun 17
First Quarter
Jun 23
Full
Jun 30
Last Quarter

Hourly Weather History & Observations

Time (AEST) Temp. Dew Point Humidity Pressure Visibility Wind Dir Wind Speed Gust Speed Precip Events Conditions
12:00 AM 58 °F 56 °F 91% 30.26 in - WSW 5.8 mph - -  
12:00 AM 59.0 °F 55.4 °F 88% 30.24 in 6.2 mi WSW 5.8 mph - N/A   Scattered Clouds
12:30 AM 57.2 °F 55.4 °F 94% 30.24 in 6.2 mi SW 3.5 mph - N/A   Mostly Cloudy
1:00 AM 57.2 °F 55.4 °F 94% 30.24 in 6.2 mi West 4.6 mph - N/A   Unknown
1:30 AM 55.4 °F 53.6 °F 94% 30.21 in 6.2 mi SSW 3.5 mph - N/A   Unknown
2:00 AM 57.2 °F 55.4 °F 94% 30.21 in 6.2 mi WSW 4.6 mph - N/A   Unknown
2:30 AM 57.2 °F 57.2 °F 100% 30.21 in 6.2 mi WSW 6.9 mph - N/A   Scattered Clouds
3:00 AM 57 °F 55 °F 92% 30.22 in - SSE 1.2 mph - -  
3:00 AM 57.2 °F 55.4 °F 94% 30.21 in 6.2 mi SSE 1.2 mph - N/A   Unknown
3:30 AM 57.2 °F 55.4 °F 94% 30.21 in 6.2 mi East 1.2 mph - N/A   Unknown
4:00 AM 57.2 °F 57.2 °F 100% 30.21 in 6.2 mi Calm Calm - N/A   Unknown
4:30 AM 59.0 °F 57.2 °F 94% 30.21 in 6.2 mi WSW 1.2 mph - N/A   Mostly Cloudy
5:00 AM 59.0 °F 57.2 °F 94% 30.21 in 6.2 mi Calm Calm - N/A   Mostly Cloudy
5:30 AM 60.8 °F 59.0 °F 94% 30.21 in 6.2 mi North 5.8 mph - N/A   Overcast
6:00 AM 60 °F 57 °F 87% 30.24 in - WSW 4.6 mph - -  
6:00 AM 60.8 °F 57.2 °F 88% 30.21 in 6.2 mi WSW 4.6 mph - N/A   Overcast
6:30 AM 59.0 °F 57.2 °F 94% 30.24 in 6.2 mi Calm Calm - N/A   Scattered Clouds
7:00 AM 59.0 °F 57.2 °F 94% 30.24 in 6.2 mi Calm Calm - N/A   Mostly Cloudy
7:30 AM 60.8 °F 57.2 °F 88% 30.27 in 6.2 mi WSW 4.6 mph - N/A   Overcast
8:00 AM 62.6 °F 59.0 °F 88% 30.27 in 6.2 mi Calm Calm - N/A   Overcast
8:30 AM 64.4 °F 60.8 °F 88% 30.27 in 6.2 mi WSW 3.5 mph - N/A   Overcast
9:00 AM 65 °F 60 °F 79% 30.29 in - WSW 3.5 mph - -  
9:00 AM 64.4 °F 60.8 °F 88% 30.27 in 6.2 mi WSW 3.5 mph - N/A   Overcast
9:30 AM 66.2 °F 60.8 °F 83% 30.27 in 6.2 mi WSW 4.6 mph - N/A   Mostly Cloudy
10:00 AM 69.8 °F 59.0 °F 68% 30.27 in 6.2 mi North 5.8 mph - N/A   Unknown
10:30 AM 69.8 °F 59.0 °F 68% 30.27 in 6.2 mi NNW 5.8 mph - N/A   Unknown
11:00 AM 71.6 °F 57.2 °F 60% 30.24 in 6.2 mi NW 6.9 mph - N/A   Scattered Clouds
11:30 AM 73.4 °F 57.2 °F 57% 30.24 in 6.2 mi NNW 5.8 mph - N/A   Unknown
12:00 PM 73 °F 59 °F 53% 30.22 in - North 11.5 mph - -  
12:00 PM 73.4 °F 59.0 °F 61% 30.21 in 6.2 mi North 11.5 mph - N/A   Unknown
12:30 PM 73.4 °F 59.0 °F 61% 30.21 in 6.2 mi North 11.5 mph - N/A   Scattered Clouds
1:00 PM 73.4 °F 59.0 °F 61% 30.18 in 6.2 mi North 12.7 mph - N/A   Scattered Clouds
1:30 PM 73.4 °F 60.8 °F 65% 30.18 in 6.2 mi North 11.5 mph - N/A   Scattered Clouds
2:00 PM 71.6 °F 59.0 °F 64% 30.18 in 6.2 mi North 11.5 mph - N/A   Unknown
2:30 PM 73.4 °F 59.0 °F 61% 30.15 in 6.2 mi North 12.7 mph - N/A   Unknown
3:00 PM 71 °F 59 °F 58% 30.18 in - North 12.7 mph - -  
3:00 PM 71.6 °F 59.0 °F 64% 30.15 in 6.2 mi North 12.7 mph - N/A   Scattered Clouds
3:30 PM 71.6 °F 59.0 °F 64% 30.15 in 6.2 mi North 11.5 mph - N/A   Unknown
4:00 PM 71.6 °F 57.2 °F 60% 30.15 in 6.2 mi North 9.2 mph - N/A   Unknown
4:30 PM 71.6 °F 57.2 °F 60% 30.18 in 6.2 mi North 8.1 mph - N/A   Unknown
5:00 PM 68.0 °F 57.2 °F 68% 30.18 in 6.2 mi NW 4.6 mph - N/A   Unknown
5:30 PM 66.2 °F 57.2 °F 73% 30.18 in 6.2 mi NW 3.5 mph - N/A   Unknown
6:00 PM 62 °F 56 °F 77% 30.19 in - NNW 5.8 mph - -  
6:00 PM 62.6 °F 57.2 °F 82% 30.18 in 6.2 mi NNW 5.8 mph - N/A   Unknown
6:30 PM 62.6 °F 59.0 °F 88% 30.18 in 6.2 mi WSW 4.6 mph - N/A   Unknown
7:00 PM 60.8 °F 57.2 °F 88% 30.18 in 6.2 mi West 6.9 mph - N/A   Unknown
7:30 PM 60.8 °F 57.2 °F 88% 30.21 in 6.2 mi West 5.8 mph - N/A   Unknown
8:00 PM 60.8 °F 57.2 °F 88% 30.21 in 6.2 mi WSW 3.5 mph - N/A   Unknown
8:30 PM 59.0 °F 57.2 °F 94% 30.21 in 6.2 mi WSW 5.8 mph - N/A   Unknown
9:00 PM 58 °F 55 °F 88% 30.23 in - West 2.3 mph - -  
9:00 PM 57.2 °F 55.4 °F 94% 30.21 in 6.2 mi West 2.3 mph - N/A   Unknown
9:30 PM 59.0 °F 57.2 °F 94% 30.21 in 6.2 mi WSW 5.8 mph - N/A   Unknown
10:00 PM 59.0 °F 57.2 °F 94% 30.21 in 6.2 mi WSW 6.9 mph - N/A   Unknown
10:30 PM 59.0 °F 57.2 °F 94% 30.21 in 6.2 mi WSW 3.5 mph - N/A   Unknown
11:00 PM 59.0 °F 57.2 °F 94% 30.21 in 6.2 mi WSW 5.8 mph - N/A   Unknown
11:30 PM 57.2 °F 55.4 °F 94% 30.21 in 6.2 mi Calm Calm - N/A   Unknown